This is the latest recevied weather packets stored in our database for station/object HEBOWX. If no packets are shown the sender has not sent any weather packets the latest 10 day(s).
| Time | Temp. | Humidity | Pressure | Rain* | Wind** | Luminosity | Snow |
|---|---|---|---|---|---|---|---|
| 1778065531 | 7.78° C | 69% | 1015.1 hPa | 0 mm | - | - | - |
| 1778065231 | 7.78° C | 68% | 1015.1 hPa | 0 mm | - | - | - |
| 1778064933 | 7.78° C | 69% | 1015 hPa | 0 mm | - | - | - |
| 1778064632 | 7.78° C | 69% | 1015 hPa | 0 mm | - | - | - |
| 1778064331 | 7.78° C | 69% | 1015 hPa | 0 mm | - | - | - |
| 1778064031 | 8.33° C | 69% | 1014.8 hPa | 0 mm | - | - | - |
| 1778063731 | 8.33° C | 69% | 1014.7 hPa | 0 mm | - | - | - |
| 1778063431 | 8.33° C | 69% | 1014.8 hPa | 0 mm | - | - | - |
| 1778063136 | 8.33° C | 68% | 1014.6 hPa | 0 mm | - | - | - |
| 1778062831 | 8.33° C | 68% | 1014.6 hPa | 0 mm | - | - | - |
| 1778062532 | 8.33° C | 69% | 1014.7 hPa | 0 mm | - | - | - |
| 1778062231 | 8.33° C | 70% | 1014.6 hPa | 0 mm | - | - | - |
| 1778061931 | 8.89° C | 69% | 1014.6 hPa | 0 mm | - | - | - |
| 1778061632 | 8.89° C | 68% | 1014.6 hPa | 0 mm | - | - | - |
| 1778061336 | 9.44° C | 66% | 1014.5 hPa | 0 mm | - | - | - |
| 1778061031 | 10° C | 63% | 1014.5 hPa | 0 mm | - | - | - |
| 1778060432 | 10° C | 66% | 1014.4 hPa | 0 mm | - | - | - |
| 1778060131 | 10° C | 66% | 1014.3 hPa | 0 mm | - | - | - |
| 1778059831 | 10° C | 66% | 1014.4 hPa | 0 mm | - | - | - |
| 1778059533 | 10° C | 66% | 1014.4 hPa | 0 mm | - | - | - |
| 1778059231 | 10.56° C | 65% | 1014.3 hPa | 0 mm | - | - | - |
| 1778058930 | 10.56° C | 64% | 1014.3 hPa | 0 mm | - | - | - |
| 1778058632 | 10.56° C | 64% | 1014.3 hPa | 0 mm | - | - | - |
| 1778058331 | 10.56° C | 63% | 1014.3 hPa | 0 mm | - | - | - |
| 1778058031 | 10.56° C | 65% | 1014.3 hPa | 0 mm | - | - | - |
* Rain latest hour (hover to see other rain measurements)
** Current wind speed in m/s (hover to see current wind gust speed)